Location: Vesunti
(61.5000°N, 22.8333°E)
Time: 19:55:28
(UTC+00:00)

H-2A R/B - Pass Details

Date: 17 February 2020
Orbit: 529 x 652 km, 98.3° (Epoch: 05 April)

Event Time Altitude Azimuth Distance (km) Brightness Sun altitude
Rises 03:36:28 0° 18° (NNE) 2,860 6.3 -18.6°
Reaches altitude 10° 03:38:37 10° 20° (NNE) 1,973 5.5 -18.3°
Maximum altitude 03:42:56 81° 107° (ESE) 639 2.6 -17.8°
Drops below altitude 10° 03:47:22 10° 196° (SSW) 2,025 5.0 -17.3°
Enters shadow 03:49:07 - 197° (SSW) 2,746 5.7 -17.1°
